Hanford, WA
on Wednesday, November 7, 2012

Wednesday
Previous Day Next Day
Daily Summary
 ActualAverage (KMWH)Record (KMWH)
Temperature
Mean Temperature °F 41°F  
Max Temperature 58°F 51°F 63°F (2006)
Min Temperature 34°F 31°F 14°F (2003)
Degree Days
Heating Degree Days 19 24  
Month to date heating degree days 161  
Since 1 July heating degree days 798  
Cooling Degree Days 0 0  
Month to date cooling degree days 0  
Year to date cooling degree days 615  
Moisture
Dew Point 33°F   
Average Humidity 57    
Maximum Humidity 82    
Minimum Humidity 36    
Precipitation
Precipitation 0.00 in 0.04 in 0.46 in (1980)
Month to date precipitation 0.26  
Year to date precipitation 6.73  
Wind
Wind Speed 11 mph   
Max Wind Speed 18 mph   
Max Gust Speed mph   
Visibility 15 miles   
Events     

Key: T is trace of precipitation, MM is missing value
Source: NWS Daily Summary
Time(PST)TemperatureDew PointHumidity Pressure Visibility Wind DirectionWind SpeedGust SpeedPrecipitationEvents Conditions
12:50 AM 53.2°F 43.2°F 69% 29.92 in 15.0 miles WNW 13.8 mph - N/A   Overcast
1:50 AM 51.6°F 41.4°F 68% 29.93 in 15.0 miles WSW 8.1 mph - N/A   Overcast
3:50 AM 49.8°F 36.3°F 60% 29.98 in 15.0 miles WNW 18.4 mph - N/A   Partly Cloudy
4:50 AM 47.8°F 36.3°F 64% 30.00 in 15.0 miles WSW 12.7 mph - N/A   Clear
5:50 AM 45.9°F 34.9°F 66% 30.02 in 15.0 miles West 11.5 mph - N/A   Partly Cloudy
6:50 AM 46.8°F 35.2°F 64% 30.04 in 15.0 miles WNW 16.1 mph - N/A   Partly Cloudy
7:50 AM 49.1°F 34.3°F 57% 30.07 in 15.0 miles WNW 12.7 mph - N/A   Partly Cloudy
8:50 AM 50.9°F 33.4°F 51% 30.08 in 15.0 miles NW 10.4 mph - N/A   Clear
9:50 AM 54.5°F 32.7°F 44% 30.08 in 15.0 miles West 9.2 mph - N/A   Clear
10:50 AM 56.5°F 32.7°F 41% 30.08 in 15.0 miles West 8.1 mph - N/A   Clear
11:50 AM 58.1°F 31.3°F 36% 30.07 in 15.0 miles WSW 11.5 mph - N/A   Partly Cloudy
12:50 PM 57.7°F 30.9°F 36% 30.06 in 15.0 miles NW 8.1 mph - N/A   Partly Cloudy
1:50 PM 57.7°F 31.1°F 36% 30.06 in 15.0 miles North 8.1 mph - N/A   Partly Cloudy
2:50 PM 54.0°F 32.4°F 44% 30.06 in 15.0 miles NW 4.6 mph - N/A   Scattered Clouds
3:50 PM 52.2°F 31.8°F 46% 30.05 in 15.0 miles North 4.6 mph - N/A   Partly Cloudy
4:50 PM 46.8°F 32.4°F 57% 30.06 in 15.0 miles NW 8.1 mph - N/A   Partly Cloudy
5:50 PM 45.3°F 31.8°F 59% 30.05 in 15.0 miles West 8.1 mph - N/A   Partly Cloudy
6:50 PM 42.6°F 30.0°F 61% 30.04 in 15.0 miles West 6.9 mph - N/A   Clear
9:50 PM 38.1°F 29.8°F 72% 29.97 in 15.0 miles West 6.9 mph - N/A   Clear
10:50 PM 34.5°F 29.5°F 82% 29.96 in 15.0 miles West 4.6 mph - N/A   Clear
11:50 PM 35.1°F 29.1°F 79% 29.94 in 15.0 miles WSW 8.1 mph - N/A   Clear
Moon Phase
Nov. 07 Nov. 13 Nov. 20 Nov. 28 Dec. 06
Sunrise:06:49 AM (PST) Moon Rise:No Moon Rise/
Sunset:04:33 PM (PST) Moon Set:01:07 PM (PST)11/7

Copyright © 2014 The Weather Underground, Inc.